EN

Hourly Weather Papalotla

Today, 5 March, Friday

Time Temperature Precipitation Wind Pressure Humidity
00:00 +15°C° 0 mm 1 mps 579 mmHg 40%
01:00 +15°C° 0 mm 1 mps 579 mmHg 41%
02:00 +13°C° 0 mm 0 mps 578 mmHg 43%
03:00 +14°C° 0 mm 1 mps 578 mmHg 44%
04:00 +14°C° 0 mm 1 mps 578 mmHg 45%
05:00 +13°C° 0 mm 1 mps 577 mmHg 46%
06:00 +15°C° 0 mm 1 mps 579 mmHg 41%
07:00 +17°C° 0 mm 0 mps 580 mmHg 36%
08:00 +19°C° 0 mm 0 mps 581 mmHg 31%
09:00 +23°C° 0 mm 1 mps 582 mmHg 27%
10:00 +25°C° 0 mm 1 mps 582 mmHg 22%
11:00 +27°C° 0 mm 2 mps 583 mmHg 17%
12:00 +28°C° 0 mm 2 mps 582 mmHg 16%
13:00 +29°C° 0 mm 3 mps 582 mmHg 15%
14:00 +30°C° 0 mm 3 mps 582 mmHg 14%
15:00 +28°C° 0 mm 3 mps 581 mmHg 16%
16:00 +27°C° 0 mm 3 mps 581 mmHg 19%
17:00 +26°C° 0 mm 3 mps 580 mmHg 22%
18:00 +24°C° 0 mm 2 mps 580 mmHg 26%
19:00 +21°C° 0 mm 2 mps 580 mmHg 30%
20:00 +20°C° 0 mm 1 mps 580 mmHg 34%
21:00 +19°C° 0 mm 1 mps 580 mmHg 36%
22:00 +18°C° 0 mm 1 mps 580 mmHg 37%
23:00 +16°C° 0 mm 1 mps 580 mmHg 39%

Tomorrow, 6 March, Saturday

Time Temperature Precipitation Wind Pressure Humidity
00:00 +16°C° 0 mm 1 mps 579 mmHg 42%
01:00 +15°C° 0 mm 2 mps 579 mmHg 45%
02:00 +14°C° 0 mm 2 mps 578 mmHg 49%
03:00 +13°C° 0 mm 2 mps 578 mmHg 57%
04:00 +12°C° 0 mm 2 mps 578 mmHg 66%
05:00 +10°C° 0 mm 3 mps 578 mmHg 75%
06:00 +12°C° 0 mm 3 mps 579 mmHg 70%
07:00 +13°C° 0 mm 3 mps 580 mmHg 64%
08:00 +16°C° 0 mm 3 mps 581 mmHg 59%
09:00 +18°C° 0 mm 3 mps 582 mmHg 50%
10:00 +21°C° 0 mm 2 mps 583 mmHg 41%
11:00 +24°C° 0 mm 2 mps 584 mmHg 31%
12:00 +25°C° 0 mm 2 mps 583 mmHg 29%
13:00 +26°C° 0 mm 3 mps 583 mmHg 27%
14:00 +27°C° 0 mm 4 mps 583 mmHg 25%
15:00 +25°C° 0.1 mm 4 mps 582 mmHg 30%
16:00 +23°C° 0.1 mm 4 mps 582 mmHg 34%
17:00 +22°C° 0.1 mm 4 mps 581 mmHg 39%
18:00 +20°C° 0.1 mm 3 mps 581 mmHg 47%
19:00 +18°C° 0.1 mm 2 mps 581 mmHg 56%
20:00 +16°C° 0.1 mm 2 mps 581 mmHg 65%
21:00 +15°C° 0 mm 2 mps 581 mmHg 67%
22:00 +14°C° 0 mm 2 mps 580 mmHg 70%
23:00 +14°C° 0 mm 2 mps 580 mmHg 72%

Day after tomorrow, 7 March, Sunday

Time Temperature Precipitation Wind Pressure Humidity
00:00 +13°C° 0 mm 2 mps 580 mmHg 73%
01:00 +13°C° 0 mm 1 mps 579 mmHg 74%
02:00 +12°C° 0 mm 1 mps 579 mmHg 75%
03:00 +12°C° 0 mm 1 mps 579 mmHg 75%
04:00 +12°C° 0 mm 1 mps 579 mmHg 76%
05:00 +12°C° 0 mm 1 mps 579 mmHg 76%
06:00 +14°C° 0 mm 1 mps 580 mmHg 67%
07:00 +16°C° 0 mm 1 mps 582 mmHg 57%
08:00 +19°C° 0 mm 1 mps 583 mmHg 48%
09:00 +22°C° 0 mm 1 mps 584 mmHg 40%
10:00 +24°C° 0 mm 1 mps 584 mmHg 32%
11:00 +26°C° 0 mm 2 mps 585 mmHg 24%
12:00 +26°C° 0 mm 3 mps 585 mmHg 24%
13:00 +27°C° 0 mm 3 mps 584 mmHg 24%
14:00 +27°C° 0 mm 4 mps 584 mmHg 24%
15:00 +26°C° 0.1 mm 4 mps 583 mmHg 27%
16:00 +25°C° 0.1 mm 3 mps 583 mmHg 31%
17:00 +22°C° 0.1 mm 3 mps 582 mmHg 35%
18:00 +21°C° 0.3 mm 2 mps 583 mmHg 41%
19:00 +19°C° 0.3 mm 2 mps 583 mmHg 47%
20:00 +19°C° 0.3 mm 1 mps 583 mmHg 53%
21:00 +18°C° 0.1 mm 1 mps 583 mmHg 55%
22:00 +18°C° 0.1 mm 1 mps 583 mmHg 56%
23:00 +16°C° 0.1 mm 1 mps 583 mmHg 58%

8 March, Monday

Time Temperature Precipitation Wind Pressure Humidity
00:00 +15°C° 0 mm 0 mps 582 mmHg 60%
01:00 +14°C° 0 mm 0 mps 582 mmHg 63%
02:00 +13°C° 0 mm 0 mps 581 mmHg 65%
03:00 +13°C° 0 mm 0 mps 581 mmHg 66%
04:00 +13°C° 0 mm 1 mps 581 mmHg 67%
05:00 +13°C° 0 mm 1 mps 581 mmHg 68%
06:00 +15°C° 0 mm 1 mps 582 mmHg 61%
07:00 +16°C° 0 mm 1 mps 583 mmHg 55%
08:00 +19°C° 0 mm 1 mps 585 mmHg 49%
09:00 +21°C° 0 mm 1 mps 585 mmHg 43%
10:00 +23°C° 0 mm 1 mps 586 mmHg 37%
11:00 +25°C° 0 mm 1 mps 586 mmHg 31%
12:00 +25°C° 0 mm 2 mps 586 mmHg 29%
13:00 +26°C° 0 mm 2 mps 585 mmHg 28%
14:00 +26°C° 0 mm 3 mps 585 mmHg 27%
15:00 +25°C° 0 mm 3 mps 584 mmHg 32%
16:00 +24°C° 0 mm 3 mps 584 mmHg 36%
17:00 +21°C° 0 mm 3 mps 583 mmHg 40%
18:00 +20°C° 0 mm 3 mps 583 mmHg 46%
19:00 +18°C° 0 mm 3 mps 583 mmHg 52%
20:00 +16°C° 0 mm 3 mps 583 mmHg 59%
21:00 +14°C° 0 mm 3 mps 583 mmHg 61%
22:00 +13°C° 0 mm 3 mps 582 mmHg 64%
23:00 +12°C° 0 mm 3 mps 582 mmHg 66%

9 March, Tuesday

Time Temperature Precipitation Wind Pressure Humidity
00:00 +11°C° 0 mm 3 mps 581 mmHg 66%
01:00 +12°C° 0 mm 2 mps 581 mmHg 66%
02:00 +10°C° 0 mm 2 mps 580 mmHg 66%
03:00 +10°C° 0 mm 2 mps 580 mmHg 64%
04:00 +10°C° 0 mm 2 mps 580 mmHg 62%
05:00 +10°C° 0 mm 2 mps 580 mmHg 60%
06:00 +13°C° 0 mm 2 mps 581 mmHg 52%
07:00 +15°C° 0 mm 2 mps 582 mmHg 45%
08:00 +17°C° 0 mm 2 mps 584 mmHg 37%
09:00 +19°C° 0 mm 2 mps 584 mmHg 31%
10:00 +23°C° 0 mm 2 mps 585 mmHg 25%
11:00 +25°C° 0 mm 2 mps 586 mmHg 20%
12:00 +26°C° 0 mm 2 mps 585 mmHg 19%
13:00 +27°C° 0 mm 2 mps 585 mmHg 17%
14:00 +27°C° 0 mm 3 mps 584 mmHg 16%
15:00 +26°C° 0 mm 3 mps 584 mmHg 20%
16:00 +25°C° 0 mm 4 mps 583 mmHg 24%
17:00 +23°C° 0 mm 4 mps 583 mmHg 28%
18:00 +20°C° 0 mm 3 mps 582 mmHg 36%
19:00 +18°C° 0 mm 3 mps 582 mmHg 44%
20:00 +16°C° 0 mm 2 mps 582 mmHg 52%
21:00 +16°C° 0 mm 2 mps 582 mmHg 54%
22:00 +15°C° 0 mm 1 mps 581 mmHg 55%
23:00 +14°C° 0 mm 1 mps 581 mmHg 57%

10 March, Wednesday

Time Temperature Precipitation Wind Pressure Humidity
00:00 +14°C° 0 mm 1 mps 581 mmHg 58%
01:00 +13°C° 0 mm 1 mps 580 mmHg 59%
02:00 +13°C° 0 mm 1 mps 580 mmHg 60%
03:00 +13°C° 0 mm 1 mps 580 mmHg 58%
04:00 +12°C° 0 mm 1 mps 580 mmHg 57%
05:00 +12°C° 0 mm 1 mps 580 mmHg 56%
06:00 +14°C° 0 mm 1 mps 581 mmHg 49%
07:00 +16°C° 0 mm 1 mps 582 mmHg 41%
08:00 +19°C° 0 mm 1 mps 583 mmHg 34%
09:00 +22°C° 0 mm 1 mps 584 mmHg 28%
10:00 +24°C° 0 mm 1 mps 584 mmHg 22%
11:00 +26°C° 0 mm 2 mps 585 mmHg 16%
12:00 +27°C° 0 mm 2 mps 584 mmHg 15%
13:00 +28°C° 0 mm 3 mps 584 mmHg 14%
14:00 +28°C° 0 mm 4 mps 583 mmHg 14%
15:00 +27°C° 0 mm 4 mps 583 mmHg 17%
16:00 +26°C° 0 mm 4 mps 582 mmHg 20%
17:00 +25°C° 0 mm 4 mps 582 mmHg 24%
18:00 +21°C° 0 mm 3 mps 582 mmHg 31%
19:00 +19°C° 0 mm 2 mps 581 mmHg 39%
20:00 +18°C° 0 mm 1 mps 581 mmHg 46%
21:00 +16°C° 0 mm 1 mps 581 mmHg 49%
22:00 +16°C° 0 mm 1 mps 581 mmHg 52%
23:00 +15°C° 0 mm 1 mps 581 mmHg 55%
Show more

We Need Your Consent

Meteoprog and our Service Providers may store and access personal data such as cookies, device identifiers or other similar technologies on your device and process such data to personalise content and ads, as well as provide social media features and to analyse the traffic.

  • Store and/or access information on your device

    Cookies, device identifiers or other information can be stored or accessed on your device for the purposes indicated above.

  • Personalised ads and content, ad and content measurement, audience insights, and products development

    Ads and content can be personalised based on a profile. More data can be added to better personalise ads and content. Ad and content performance can be measured. Insights about the audience who saw the ads and content can be derived. Such data can be used to develop or improve user’s experience, systems and software.

By clicking ‘I Agree’ you will allow the use of indicated cookies, device identifiers, web beacons or other similar technologies. Your settings can be changed in the browser on your device.

For certain purposes, legitimate interests may be relied on, rather than consent. You can read more about this in our Privacy and Cookie Policy.